Orbital Elements at Epoch 2459200.5 (2020-Dec-17.0) TDB
Reference: JPL 26 (heliocentric ecliptic J2000)
Element | Value | Uncertainty (1-sigma) | Units |
e | .1400656112743059 | 4.298e-08 | |
a | 2.29381930872172 | 9.2816e-09 | au |
q | 1.972534105092806 | 1.0155e-07 | au |
i | 6.121342592128497 | 5.4514e-06 | deg |
node | 301.3498710671071 | 3.9534e-05 | deg |
peri | 72.12841804316284 | 4.4599e-05 | deg |
M | 99.4644555398158 | 1.9281e-05 | deg |
tp | 2458849.907483217279 (2020-Jan-01.40748322) | 6.7648e-05 | TDB |
period | 1268.928737977721 3.47 | 7.7018e-06 2.109e-08 | d yr |
n | .2837038749502422 | 1.7219e-09 | deg/d |
Q | 2.615104512350634 | 1.0582e-08 | au |
|
| | Orbit Determination Parameters
Additional Information
|